(289588) = 2005 FL5 = 2006 QQ90

Discovered at Bergisch Gladbach on 2005-03-31 by W. Bickel.

Orbit

Orbit type: Main Belt

Note: WebGL enabled browser required.

epoch2023-02-25.0
epoch JD2460000.5
perihelion date2020-05-03.08043
perihelion JD2458972.58043
argument of perihelion (°)235.59381
ascending node (°)10.69619
inclination (°)5.73000
eccentricity0.0811488
perihelion distance (AU)2.1624588
Tisserand w.r.t. Jupiter3.5
ΔV w.r.t. Earth (km/sec)9.3
semimajor axis (AU)2.3534375
mean anomaly (°)280.61376
mean daily motion (°/day)0.27299200
aphelion distance (AU)2.544
period (years)3.61
P-vector [x]-0.40287276
P-vector [y]-0.80355665
P-vector [z]-0.43816691
Q-vector [x]0.91506839
Q-vector [y]-0.34394035
Q-vector [z]-0.21060598
absolute magnitude17.5
phase slope0.15
uncertainty0
referenceMPO 745323
observations used330
oppositions13
arc length (days)8560
first opposition used1999
last opposition used2023
residual rms (arc-secs)0.65
perturbers coarse indicatorM-v
perturbers precise indicator003Ek
first observation date used1999-11-01.0
last observation date used2023-04-09.0
computer nameMPCLINUX
JD of orbit computation2456494.370660
perihelion JD uncertainty (days)1.1409E-04
argument of perihelion uncertainty (°)4.7515E-05
ascending node uncertainty (°)3.4346E-05
inclination uncertainty (°)4.8987E-06
eccentricity uncertainty 5.0749E-08
perihelion distance uncertainty (AU)1.1328E-07
Minimum Orbit Intersection Distances (in AU)
for orbit epoch: 2460000.5, reference: E2023-G47
Mercury1.69736
Venus1.44172
Earth1.15554
Mars0.5965
Jupiter2.46295
Saturn6.55217
Uranus16.11
Neptune27.351

Observations

338 total observations over interval: 1999 11 01.09315 – 2023 04 09.294270
These data are available for download (format description).

Date (UT) J2000 RA J2000 Dec Magn Location Ref
1999 11 01.09315 23 36 19.78 -02 41 46.3 21.7 V 691 – Steward Observatory, Kitt Peak-Spacewatch MPS 178509
1999 11 01.11661 23 36 19.35 -02 41 45.6 22.0 V 691 – Steward Observatory, Kitt Peak-Spacewatch MPS 178509
1999 11 01.13925 23 36 18.95 -02 41 44.6 21.5 V 691 – Steward Observatory, Kitt Peak-Spacewatch MPS 178509
2003 10 25.32762 03 05 28.68 +22 32 53.3 21.9 V 691 – Steward Observatory, Kitt Peak-Spacewatch MPS 178509
2003 10 25.35755 03 05 26.85 +22 32 51.1 21.6 V 691 – Steward Observatory, Kitt Peak-Spacewatch MPS 178509
2003 10 25.38764 03 05 24.97 +22 32 49.0 21.3 V 691 – Steward Observatory, Kitt Peak-Spacewatch MPS 178509
2003 11 21.16686 02 36 42.43 +21 22 57.3 21.5 V 691 – Steward Observatory, Kitt Peak-Spacewatch MPS 178509
2003 11 21.19369 02 36 40.81 +21 22 51.7 22.0 V 691 – Steward Observatory, Kitt Peak-Spacewatch MPS 178509
2003 11 21.22021 02 36 39.18 +21 22 46.1 21.8 V 691 – Steward Observatory, Kitt Peak-Spacewatch MPS 178509
2005 03 31.90031 10 52 43.58 +10 14 56.6   621 – Bergisch Gladbach MPS 130854
2005 03 31.91197 10 52 42.99 +10 14 56.9   621 – Bergisch Gladbach MPS 130854
2005 03 31.92365 10 52 42.50 +10 14 57.4 20 R 621 – Bergisch Gladbach MPS 130854
2005 04 01.90043 10 52 01.32 +10 15 28.3   621 – Bergisch Gladbach MPS 130854
2005 04 01.91213 10 52 00.89 +10 15 28.7   621 – Bergisch Gladbach MPS 130854
2005 04 01.92383 10 52 00.47 +10 15 28.0 20 R 621 – Bergisch Gladbach MPS 130854
2005 04 09.13676 10 47 46.73 +10 14 13.8 20.9 V 691 – Steward Observatory, Kitt Peak-Spacewatch MPS 131795
2005 04 09.15245 10 47 46.22 +10 14 13.3 20.9 V 691 – Steward Observatory, Kitt Peak-Spacewatch MPS 131795
2005 04 09.16832 10 47 45.73 +10 14 12.6 20.8 V 691 – Steward Observatory, Kitt Peak-Spacewatch MPS 131795
2005 04 11.19583 10 46 51.11 +10 12 12.5 20.3 R G96 – Mt. Lemmon Survey MPS 131795
2005 04 11.20223 10 46 50.93 +10 12 11.7 20.1 R G96 – Mt. Lemmon Survey MPS 131795
2005 04 11.20863 10 46 50.77 +10 12 11.5 20.3 R G96 – Mt. Lemmon Survey MPS 131795
2005 04 11.21505 10 46 50.57 +10 12 11.0 20.4 R G96 – Mt. Lemmon Survey MPS 131795
2005 05 10.15661 10 47 36.64 +08 31 41.3 21.1 R G96 – Mt. Lemmon Survey MPS 178509
2005 05 10.16424 10 47 36.82 +08 31 38.4 20.1 R G96 – Mt. Lemmon Survey MPS 178509
2005 05 10.17186 10 47 37.00 +08 31 35.7 20.5 R G96 – Mt. Lemmon Survey MPS 178509
2005 05 10.17949 10 47 37.20 +08 31 33.4 20.6 R G96 – Mt. Lemmon Survey MPS 178509
2006 08 25.35116 22 17 22.42 -17 38 26.6 20.0 z 568 – Maunakea MPS 177248
2006 08 25.35591 22 17 22.12 -17 38 27.5 20.1 z 568 – Maunakea MPS 177248
2006 08 25.36544 22 17 21.49 -17 38 29.3 20.1 z 568 – Maunakea MPS 177248
2006 08 28.38164 22 14 14.81 -17 46 54.1 19.9 I 568 – Maunakea MPS 177248
2006 08 28.38641 22 14 14.50 -17 46 54.8 19.9 I 568 – Maunakea MPS 177248
2006 08 28.39120 22 14 14.20 -17 46 55.6 19.9 I 568 – Maunakea MPS 177248
2006 08 28.39595 22 14 13.89 -17 46 56.3 19.9 I 568 – Maunakea MPS 177248
2006 08 28.40073 22 14 13.58 -17 46 57.2 19.6 I 568 – Maunakea MPS 177248
2010 09 14.35830 01 41 05.99 +10 55 40.5 20.9 V 691 – Steward Observatory, Kitt Peak-Spacewatch MPS 347952
2010 09 14.37599 01 41 05.32 +10 55 39.5 20.6 V 691 – Steward Observatory, Kitt Peak-Spacewatch MPS 347952
2010 09 14.39369 01 41 04.70 +10 55 39.3 21.0 V 691 – Steward Observatory, Kitt Peak-Spacewatch MPS 347952
2010 09 18.35431 01 38 32.51 +10 51 44.8 20.8 V 691 – Steward Observatory, Kitt Peak-Spacewatch MPS 347952
2010 09 18.37200 01 38 31.75 +10 51 43.2 21.2 V 691 – Steward Observatory, Kitt Peak-Spacewatch MPS 347952
2010 09 18.38972 01 38 30.96 +10 51 41.7 20.6 V 691 – Steward Observatory, Kitt Peak-Spacewatch MPS 347952
2010 09 29.36148 01 29 34.60 +10 30 15.8   691 – Steward Observatory, Kitt Peak-Spacewatch MPS 349438
2010 09 29.37919 01 29 33.56 +10 30 12.6   691 – Steward Observatory, Kitt Peak-Spacewatch MPS 349438
2010 09 29.39694 01 29 32.55 +10 30 09.8   691 – Steward Observatory, Kitt Peak-Spacewatch MPS 349438
2010 10 03.512904 01 25 37.246 +10 18 36.66 20.68 r F51 – Pan-STARRS 1, Haleakala MPS 365514
2010 10 03.524350 01 25 36.542 +10 18 34.42 20.64 r F51 – Pan-STARRS 1, Haleakala MPS 365514
2010 10 07.540116 01 21 35.353 +10 05 49.72 21.12 g F51 – Pan-STARRS 1, Haleakala MPS 365514
2010 10 07.552165 01 21 34.590 +10 05 47.48 21.10 g F51 – Pan-STARRS 1, Haleakala MPS 365514
2010 10 09.35440 01 19 44.11 +09 59 41.2 20.4 V G96 – Mt. Lemmon Survey MPS 351186
2010 10 09.36123 01 19 43.64 +09 59 39.6 20.2 V G96 – Mt. Lemmon Survey MPS 351186
2010 10 09.37509 01 19 42.81 +09 59 36.8 20.1 V G96 – Mt. Lemmon Survey MPS 351186
2010 10 09.37697 01 19 42.67 +09 59 36.7 20.4 V 691 – Steward Observatory, Kitt Peak-Spacewatch MPS 351186
2010 10 09.39469 01 19 41.54 +09 59 33.0 20.6 V 691 – Steward Observatory, Kitt Peak-Spacewatch MPS 351186
2010 10 09.41244 01 19 40.41 +09 59 29.2 20.3 V 691 – Steward Observatory, Kitt Peak-Spacewatch MPS 351186
2010 10 13.33818 01 15 37.26 +09 45 38.4 20.4 V 691 – Steward Observatory, Kitt Peak-Spacewatch MPS 351186
2010 10 13.35589 01 15 36.17 +09 45 34.9 20.1 V 691 – Steward Observatory, Kitt Peak-Spacewatch MPS 351186
2010 10 13.37359 01 15 34.94 +09 45 30.6 20.2 V 691 – Steward Observatory, Kitt Peak-Spacewatch MPS 351186
2010 10 13.39618 01 15 33.54 +09 45 25.7 20.5 V 691 – Steward Observatory, Kitt Peak-Spacewatch MPS 351186
2010 10 13.41389 01 15 32.41 +09 45 22.3 20.4 V 691 – Steward Observatory, Kitt Peak-Spacewatch MPS 351186
2010 10 13.43161 01 15 31.29 +09 45 17.9 20.4 V 691 – Steward Observatory, Kitt Peak-Spacewatch MPS 351186
2010 11 07.23257 00 53 09.60 +08 22 35.5 20.9 V G96 – Mt. Lemmon Survey MPS 355325
2010 11 07.23834 00 53 09.34 +08 22 34.3 20.9 V G96 – Mt. Lemmon Survey MPS 355325
2010 11 07.24417 00 53 09.09 +08 22 33.9 21.1 V G96 – Mt. Lemmon Survey MPS 355325
2010 11 07.24992 00 53 08.88 +08 22 32.7 21.1 V G96 – Mt. Lemmon Survey MPS 355325
2012 01 29.24337 09 32 17.88 +23 04 23.6 20.4 V G96 – Mt. Lemmon Survey MPS 411481
2012 01 29.25151 09 32 17.37 +23 04 26.3 20.5 V G96 – Mt. Lemmon Survey MPS 411481
2012 01 29.25964 09 32 16.83 +23 04 28.1 20.8 V G96 – Mt. Lemmon Survey MPS 411481
2012 01 29.26785 09 32 16.26 +23 04 31.0 21.6 V G96 – Mt. Lemmon Survey MPS 411481
2013 06 30.48890 20 19 07.820 -29 58 52.64 20.1 r F51 – Pan-STARRS 1, Haleakala MPS 471745
2013 06 30.49985 20 19 07.223 -29 58 55.22 19.9 i F51 – Pan-STARRS 1, Haleakala MPS 471745
2013 07 04.43804 20 15 39.171 -30 14 02.17 20.1 w F51 – Pan-STARRS 1, Haleakala MPS 471745
2013 07 04.45062 20 15 38.437 -30 14 05.10 20.2 w F51 – Pan-STARRS 1, Haleakala MPS 471745
2013 07 04.46319 20 15 37.691 -30 14 07.94 20.2 w F51 – Pan-STARRS 1, Haleakala MPS 471745
2013 07 04.47576 20 15 36.956 -30 14 10.78 20.2 w F51 – Pan-STARRS 1, Haleakala MPS 471745
2013 07 17.46221 20 02 04.456 -30 52 46.88 20.0 r F51 – Pan-STARRS 1, Haleakala MPS 472581
2013 07 17.47125 20 02 03.821 -30 52 47.94 20.0 r F51 – Pan-STARRS 1, Haleakala MPS 472581
2013 07 18.45335 20 00 58.411 -30 54 45.12 19.6 i F51 – Pan-STARRS 1, Haleakala MPS 472581
2013 07 18.46326 20 00 57.718 -30 54 46.25 19.8 i F51 – Pan-STARRS 1, Haleakala MPS 472581
2014 11 22.28843 04 12 16.04 +28 42 51.3 20.2 V G96 – Mt. Lemmon Survey MPS 549394
2014 11 22.29451 04 12 15.56 +28 42 50.1 20.6 V G96 – Mt. Lemmon Survey MPS 549394
2014 11 22.30060 04 12 15.12 +28 42 49.6 20.8 V G96 – Mt. Lemmon Survey MPS 549394
2014 11 24.27677 04 09 55.09 +28 40 25.9 20.4 V G96 – Mt. Lemmon Survey MPS 549394
2014 11 24.28218 04 09 54.73 +28 40 25.8 20.2 V G96 – Mt. Lemmon Survey MPS 549394
2014 11 24.28761 04 09 54.37 +28 40 24.7 20.5 V G96 – Mt. Lemmon Survey MPS 549394
2014 11 24.29302 04 09 54.01 +28 40 25.5 19.9 V G96 – Mt. Lemmon Survey MPS 549394
2014 11 27.18512 04 06 28.34 +28 35 59.5 21.0 V 691 – Steward Observatory, Kitt Peak-Spacewatch MPS 551288
2014 11 27.18760 04 06 28.15 +28 35 59.2 20.7 V 691 – Steward Observatory, Kitt Peak-Spacewatch MPS 551288
2014 11 27.20551 04 06 26.85 +28 35 57.2 21.1 V 691 – Steward Observatory, Kitt Peak-Spacewatch MPS 551288
2014 11 27.20799 04 06 26.67 +28 35 57.3 20.8 V 691 – Steward Observatory, Kitt Peak-Spacewatch MPS 551288
